Location: Cactus (historical)
(39.7561°N, 99.6687°W)
Time: 22:37:25
(UTC+00:00)

Daily predictions for brighter satellites

Satellite Brightness Start Highest point End
(mag) Time Altitude Azimuth Time Altitude Azimuth Time Altitude Azimuth
Cosmos 1726 4.3 12:01:21 10° SSE 12:04:28 27° E 12:07:37 10° NNE
Meteor 1-24 Rocket 4.1 12:09:10 38° WNW 12:10:06 41° W 12:15:33 10° SSW
Cosmos 1980 Rocket 2.5 12:04:34 10° SSW 12:10:12 69° ESE 12:15:52 10° NNE
Cosmos 1626 Rocket 3.7 12:15:46 45° WNW 12:16:09 46° W 12:20:18 10° SSW
Cosmos 1470 3.9 12:19:38 27° NNW 12:19:38 27° NNW 12:21:45 10° N
Cosmos 1697 Rocket 2.7 12:13:59 10° SW 12:19:27 54° WNW 12:24:58 10° NNE
FENGYUN 3A 3.6 12:14:40 10° N 12:20:02 68° WNW 12:25:23 10° SSW
STARLINK-28 4.4 12:17:30 13° SSW 12:20:25 42° SE 12:23:48 10° ENE
Cosmos 2184 Rocket 4.3 12:15:20 10° NNW 12:21:06 42° W 12:26:54 10° SSW
USA 116 4.1 12:17:53 10° SSE 12:22:57 86° WSW 12:27:33 10° NNW
Helios 1A Rocket 3.3 12:21:38 10° NNE 12:25:44 65° ESE 12:29:49 10° S
Cosmos 2154 Rocket 4.0 12:22:45 10° NNW 12:28:51 60° W 12:34:54 10° S
Meteor 2-17 Rocket 4.3 12:23:12 10° N 12:29:19 81° W 12:35:21 10° S
Cosmos 2344 3.7 12:25:33 10° WSW 12:32:43 50° NW 12:40:33 10° NNE
STARLINK-34 4.3 12:31:31 10° SSW 12:35:26 54° SE 12:39:23 10° ENE
Cosmos 1825 Rocket 3.6 12:31:27 10° N 12:35:48 79° E 12:40:07 10° S
STARLINK-24 4.2 12:33:50 10° SW 12:37:46 56° SE 12:41:43 10° ENE
STARLINK-81 4.3 12:34:36 10° SSW 12:38:31 52° SE 12:42:26 10° ENE
NOSS 2-2 (C) 3.6 12:37:40 28° W 12:38:59 38° NW 12:42:40 10° NNE
STARLINK-54 4.1 12:36:21 10° SW 12:40:18 60° SE 12:44:17 10° ENE
Cosmos 2082 4.0 12:36:41 16° NW 12:41:00 46° WSW 12:46:25 10° S
CZ-4B DEB 4.4 12:35:47 10° N 12:41:06 49° WNW 12:46:23 10° SW
STARLINK-77 4.2 12:37:52 10° SW 12:41:48 56° SE 12:45:45 10° ENE
STARLINK-25 4.1 12:39:32 10° SW 12:43:28 58° SE 12:47:25 10° ENE
Abrixas rocket 4.1 12:43:57 15° NNW 12:44:57 17° N 12:47:00 10° NE
STARLINK-71 3.9 12:41:19 10° SW 12:45:18 68° SE 12:49:18 10° NE
COSMO-SKYMED 1 3.5 12:41:47 10° SSW 12:45:25 26° W 12:47:24 19° NW
STARLINK-79 4.0 12:42:46 10° SW 12:46:45 63° SE 12:50:44 10° NE
STARLINK-78 3.9 12:44:27 10° SW 12:48:25 66° SE 12:52:25 10° NE
ALOS 3.0 12:44:27 10° N 12:48:31 30° WNW 12:52:33 10° SW
NOSS 3-4 (A) 4.1 12:43:04 10° SSW 12:48:52 58° ESE 12:54:58 10° NE
NOSS 3-4 (C) 4.1 12:43:12 10° SSW 12:48:59 58° ESE 12:55:03 10° NE
CZ-3B R/B 3.7 12:49:26 10° SSW 12:49:56 10° SSW 12:50:25 10° S
STARLINK-57 3.8 12:46:10 10° SW 12:50:10 72° SE 12:54:11 10° NE
NOSS 2-2 (E) 4.3 12:49:14 21° WNW 12:50:23 25° NW 12:53:46 10° NNE
Cosmos 1606 Rocket 3.5 12:47:08 10° SSW 12:51:32 65° W 12:55:58 10° N
STARLINK-49 3.8 12:47:42 10° SW 12:51:42 70° SE 12:55:43 10° NE
SL-4 R/B 3.1 12:49:24 14° NNW 12:51:53 28° NNE 12:54:54 10° E
STARLINK-48 4.4 12:50:11 21° WNW 12:51:54 29° NNW 12:55:21 10° NNE
STARLINK-27 3.8 12:49:21 10° SW 12:53:21 73° SE 12:57:23 10° NE
Cosmos 2297 Rocket 3.5 12:52:52 16° WNW 12:54:29 18° W 12:58:16 10° SW
Cosmos 1726 Rocket 3.5 12:50:19 10° SSW 12:54:46 76° W 12:59:13 10° N
STARLINK-74 3.7 12:51:00 10° SW 12:55:00 75° SE 12:59:01 10° NE
ATLAS 3B R/B 4.0 12:49:04 10° NNW 12:55:08 34° NE 13:01:21 10° ESE
USA 215 3.8 12:49:08 10° SSE 12:55:15 42° SW 13:00:46 13° WNW
STARLINK-39 3.7 12:52:39 10° SW 12:56:39 78° SE 13:00:41 10° NE
Cosmos 2322 Rocket 3.7 12:52:00 10° S 12:57:14 41° ESE 13:02:33 10° NE
STARLINK 3.6 12:54:18 10° SW 12:58:18 81° SE 13:02:21 10° NE
STARLINK-69 3.5 12:56:07 10° SW 13:00:09 89° NW 13:04:11 10° NE
Cosmos 2366 rocket 4.2 12:54:25 10° N 13:00:49 79° E 13:07:10 10° S
NOSS 3-2 (A) 4.2 12:53:53 10° NW 13:01:37 87° WSW 13:10:09 10° SSE
STARLINK-21 3.5 12:57:38 10° SW 13:01:40 87° SE 13:05:42 10° NE
STARLINK-45 3.5 12:59:31 10° SW 13:03:31 82° NW 13:07:33 10° NE
STARLINK-70 3.5 13:01:02 10° SW 13:05:03 83° NW 13:09:06 10° NE
CZ-4 R/B 4.3 13:02:20 10° NE 13:05:39 22° E 13:08:56 10° SE
Cosmos 2227 Rocket 3.7 13:03:53 13° WNW 13:06:07 16° W 13:09:26 10° SW
STARLINK-76 3.5 13:02:35 10° SW 13:06:36 85° NW 13:10:39 10° NE
Cosmos 923 Rocket 4.0 13:02:38 10° SSW 13:07:50 69° WNW 13:13:08 10° NNE
STARLINK 3.5 13:04:16 10° SW 13:08:17 82° NW 13:12:19 10° NE
IRS-1C Rocket 4.2 13:04:06 10° NNE 13:09:24 83° ESE 13:14:40 10° SSW
STARLINK-32 3.5 13:05:52 10° SW 13:09:53 79° NW 13:13:56 10° NE
COSMOS 2455 3.0 13:05:21 10° SW 13:11:09 49° WNW 13:17:00 10° NNE
STARLINK-40 3.5 13:07:33 10° SW 13:11:35 77° NW 13:15:37 10° NE
H-2A R/B 2.8 13:09:01 10° N 13:12:52 56° WNW 13:16:41 10° SSW
STARLINK-44 3.5 13:09:12 10° SW 13:13:13 74° NW 13:17:15 10° NE
BREEZE-M DEB (TANK) 3.7 13:12:48 10° W 13:14:07 13° SW 13:15:19 10° SSW
STARLINK-37 3.5 13:11:00 10° WSW 13:15:01 68° NW 13:19:02 10° NE
Cosmos 2263 Rocket 2.6 13:10:45 10° NNW 13:16:22 68° ENE 13:22:00 10° SSE
STARLINK-36 3.5 13:12:32 10° WSW 13:16:33 70° NW 13:20:34 10° NE
STARLINK-68 3.6 13:14:25 10° WSW 13:18:24 62° NW 13:22:23 10° NE
USA 32 4.4 13:14:00 10° NNW 13:18:55 42° W 13:23:49 10° SSW
STARLINK-63 3.6 13:15:58 10° WSW 13:19:58 62° NW 13:23:57 10° NE
YAOGAN 6 3.3 13:17:21 10° NNE 13:20:52 57° E 13:24:19 10° S
STARLINK-35 3.6 13:17:31 10° WSW 13:21:31 63° NW 13:25:31 10° NE
Cosmos 1953 3.8 13:18:56 10° WSW 13:21:34 17° WNW 13:24:13 10° NNW
Cosmos 2181 Rocket 4.2 13:16:31 10° SSW 13:22:25 47° WNW 13:28:26 10° N
CENTAUR R/B 3.5 13:14:37 10° NNW 13:22:47 73° NE 13:31:32 10° SE
STARLINK-51 3.6 13:19:11 10° WSW 13:23:09 61° NW 13:27:09 10° NE
Cosmos 1908 3.4 13:19:35 10° SSW 13:23:23 49° W 13:27:11 10° N
STARLINK-42 3.5 13:19:58 10° WSW 13:23:45 55° NW 13:27:31 10° NE
ATLAS 2AS CENTAUR R/B 3.1 13:15:58 10° SW 13:23:52 69° NW 13:31:53 10° NNE
STARLINK-64 3.5 13:20:22 10° WSW 13:24:08 56° NW 13:27:55 10° NE
STARLINK-30 3.6 13:20:51 10° WSW 13:24:49 59° NW 13:28:49 10° NE
Cosmos 1703 3.5 13:22:36 10° NNW 13:26:26 50° W 13:30:15 10° S
STARLINK-72 3.6 13:22:31 10° WSW 13:26:29 57° NW 13:30:28 10° NE
Cosmos 1300 3.7 13:24:17 10° S 13:27:59 51° E 13:31:42 10° NNE
ADEOS Rocket 3.0 13:22:40 10° S 13:27:59 50° W 13:33:21 10° NNW
STARLINK-50 3.7 13:24:11 10° WSW 13:28:08 55° NW 13:32:06 10° NE
STARLINK-59 3.7 13:25:59 10° WSW 13:29:54 51° NW 13:33:51 10° NE
STARLINK-33 3.6 13:27:04 10° WSW 13:30:35 45° NW 13:34:09 10° NE
